Time,TemperatureF,DewpointF,PressureIn,WindDirection,WindDirectionDegrees,WindSpeedMPH,WindSpeedGustMPH,Humidity,HourlyPrecipIn,Conditions,Clouds,dailyrainin,SoftwareType,DateUTC
2013-08-14 00:00:00,65.4,62.7,29.66,ESE,118,0.0,0.0,91,0.00,,FEW050,0.01,VWS V14.01,2013-08-14 04:00:00,
2013-08-14 00:01:00,65.4,62.7,29.66,ESE,118,0.0,0.0,91,0.00,,SCT110,0.01,VWS V14.01,2013-08-14 04:01:00,
2013-08-14 00:06:00,65.3,62.6,29.66,ESE,118,0.0,0.0,91,0.00,,SCT110,0.00,VWS V14.01,2013-08-14 04:06:00,
2013-08-14 00:11:00,65.3,62.6,29.66,ESE,118,0.0,0.0,91,0.00,,SCT110,0.00,VWS V14.01,2013-08-14 04:11:00,
2013-08-14 00:16:00,65.2,62.5,29.66,ESE,118,0.0,0.0,91,0.00,,SCT110,0.00,VWS V14.01,2013-08-14 04:16:00,
2013-08-14 00:21:00,65.2,62.5,29.66,ESE,118,0.0,0.0,91,0.00,,SCT110,0.00,VWS V14.01,2013-08-14 04:21:00,
2013-08-14 00:26:00,65.2,62.5,29.66,ESE,118,0.0,0.0,91,0.00,,SCT110,0.00,VWS V14.01,2013-08-14 04:26:00,
2013-08-14 00:30:00,65.2,62.5,29.67,ESE,118,0.0,0.0,91,0.00,,FEW050,0.00,VWS V14.01,2013-08-14 04:30:00,
2013-08-14 00:31:00,65.1,62.4,29.67,ESE,118,0.0,0.0,91,0.00,,SCT110,0.00,VWS V14.01,2013-08-14 04:31:00,
2013-08-14 00:36:00,65.1,62.4,29.66,ESE,118,0.0,0.0,91,0.00,,SCT110,0.00,VWS V14.01,2013-08-14 04:36:00,
2013-08-14 00:41:00,65.1,62.4,29.66,ESE,118,0.0,0.0,91,0.00,,SCT110,0.00,VWS V14.01,2013-08-14 04:41:00,
2013-08-14 00:46:00,65.1,62.4,29.66,ESE,118,0.0,0.0,91,0.00,,SCT110,0.00,VWS V14.01,2013-08-14 04:46:00,
2013-08-14 00:51:00,65.1,62.4,29.66,ESE,118,0.0,0.0,91,0.00,,SCT110,0.00,VWS V14.01,2013-08-14 04:51:00,
2013-08-14 00:56:00,65.1,62.4,29.65,ESE,118,0.0,0.0,91,0.00,,SCT110,0.00,VWS V14.01,2013-08-14 04:56:00,
2013-08-14 01:01:00,65.1,62.4,29.65,ESE,118,0.0,0.0,91,0.00,,SCT110,0.00,VWS V14.01,2013-08-14 05:01:00,
2013-08-14 01:06:00,65.1,62.4,29.66,ESE,118,0.0,0.0,91,0.00,,SCT110,0.00,VWS V14.01,2013-08-14 05:06:00,
2013-08-14 01:11:00,65.0,62.3,29.65,ESE,118,0.0,0.0,91,0.00,,SCT110,0.00,VWS V14.01,2013-08-14 05:11:00,
2013-08-14 01:16:00,65.1,62.4,29.65,ESE,118,0.0,0.0,91,0.00,,SCT110,0.00,VWS V14.01,2013-08-14 05:16:00,
2013-08-14 01:21:00,65.0,62.3,29.65,ESE,118,0.0,0.0,91,0.00,,SCT110,0.00,VWS V14.01,2013-08-14 05:21:00,
2013-08-14 01:26:00,65.0,62.3,29.65,ESE,118,0.0,0.0,91,0.00,,SCT110,0.00,VWS V14.01,2013-08-14 05:26:00,
2013-08-14 01:30:00,65.0,62.3,29.65,ESE,118,0.0,0.0,91,0.00,,FEW050,0.00,VWS V14.01,2013-08-14 05:30:00,
2013-08-14 01:31:00,65.0,62.3,29.65,ESE,118,0.0,0.0,91,0.00,,SCT110,0.00,VWS V14.01,2013-08-14 05:31:00,
2013-08-14 01:36:00,65.0,62.6,29.64,ESE,118,0.0,0.0,92,0.00,,SCT110,0.00,VWS V14.01,2013-08-14 05:36:00,
2013-08-14 01:41:00,65.1,62.4,29.64,ESE,118,0.0,0.0,91,0.00,,SCT110,0.00,VWS V14.01,2013-08-14 05:41:00,
2013-08-14 01:46:00,65.1,62.4,29.64,ESE,118,0.0,0.0,91,0.00,,SCT110,0.00,VWS V14.01,2013-08-14 05:46:00,
2013-08-14 01:51:00,65.1,62.4,29.65,ESE,118,0.0,0.0,91,0.00,,SCT110,0.00,VWS V14.01,2013-08-14 05:51:00,
2013-08-14 01:56:00,65.0,62.3,29.65,ESE,118,0.0,0.0,91,0.00,,SCT110,0.00,VWS V14.01,2013-08-14 05:56:00,
2013-08-14 02:00:00,65.1,62.4,29.65,ESE,118,0.0,0.0,91,0.00,,FEW050,0.00,VWS V14.01,2013-08-14 06:00:00,
2013-08-14 02:01:00,65.1,62.4,29.65,ESE,118,0.0,0.0,91,0.00,,SCT110,0.00,VWS V14.01,2013-08-14 06:01:00,
2013-08-14 02:06:00,65.1,62.4,29.65,ESE,118,0.0,4.0,91,0.00,,SCT110,0.00,VWS V14.01,2013-08-14 06:06:00,
2013-08-14 02:11:00,65.1,62.4,29.65,ESE,118,0.0,4.0,91,0.00,,SCT110,0.00,VWS V14.01,2013-08-14 06:11:00,
2013-08-14 02:16:00,65.1,62.4,29.64,ESE,118,0.0,4.0,91,0.00,,SCT110,0.00,VWS V14.01,2013-08-14 06:16:00,
2013-08-14 02:21:00,65.1,62.4,29.65,ESE,118,0.0,4.0,91,0.00,,SCT110,0.00,VWS V14.01,2013-08-14 06:21:00,
2013-08-14 02:26:00,65.2,62.5,29.65,ESE,118,0.0,4.0,91,0.00,,SCT110,0.00,VWS V14.01,2013-08-14 06:26:00,
2013-08-14 02:31:00,65.3,62.6,29.65,ESE,118,0.0,0.0,91,0.00,,SCT110,0.00,VWS V14.01,2013-08-14 06:31:00,
2013-08-14 02:36:00,65.4,62.7,29.65,ESE,118,0.0,0.0,91,0.00,,SCT110,0.00,VWS V14.01,2013-08-14 06:36:00,
2013-08-14 02:41:00,65.6,62.9,29.65,ESE,118,0.0,0.0,91,0.00,,SCT110,0.00,VWS V14.01,2013-08-14 06:41:00,
2013-08-14 02:46:00,65.6,62.9,29.65,ESE,118,0.0,0.0,91,0.00,,SCT110,0.00,VWS V14.01,2013-08-14 06:46:00,
2013-08-14 02:51:00,65.6,62.9,29.65,ESE,118,0.0,0.0,91,0.00,,SCT110,0.00,VWS V14.01,2013-08-14 06:51:00,
2013-08-14 02:56:00,65.7,63.0,29.64,ESE,118,0.0,0.0,91,0.00,,SCT110,0.00,VWS V14.01,2013-08-14 06:56:00,
2013-08-14 03:01:00,65.7,63.0,29.64,ESE,118,0.0,0.0,91,0.00,,BKN036,0.00,VWS V14.01,2013-08-14 07:01:00,
2013-08-14 03:06:00,65.7,63.0,29.64,ESE,118,0.0,0.0,91,0.00,,BKN036,0.00,VWS V14.01,2013-08-14 07:06:00,
2013-08-14 03:11:00,65.6,62.9,29.64,ESE,118,0.0,0.0,91,0.00,,BKN036,0.00,VWS V14.01,2013-08-14 07:11:00,
2013-08-14 03:16:00,65.6,62.9,29.64,ESE,118,1.0,4.0,91,0.00,,BKN036,0.00,VWS V14.01,2013-08-14 07:16:00,
2013-08-14 03:21:00,65.6,62.9,29.64,ESE,118,0.0,4.0,91,0.00,,BKN036,0.00,VWS V14.01,2013-08-14 07:21:00,
2013-08-14 03:30:00,65.8,63.1,29.65,ESE,112,0.0,4.0,91,0.00,,FEW050,0.00,VWS V14.01,2013-08-14 07:30:00,
2013-08-14 04:00:00,65.8,63.1,29.65,ESE,112,1.0,7.0,91,0.00,,FEW050,0.00,VWS V14.01,2013-08-14 08:00:00,
2013-08-14 04:30:00,65.9,63.2,29.64,West,270,3.0,11.0,91,0.00,,FEW050,0.00,VWS V14.01,2013-08-14 08:30:00,
2013-08-14 05:00:00,65.5,62.2,29.65,West,270,4.0,12.0,89,0.00,,FEW047,0.00,VWS V14.01,2013-08-14 09:00:00,
2013-08-14 05:30:00,65.1,61.5,29.66,West,270,3.0,11.0,88,0.00,,FEW047,0.00,VWS V14.01,2013-08-14 09:30:00,
2013-08-14 06:00:00,64.3,58.3,29.68,West,270,4.0,15.0,81,0.01,,FEW047,0.01,VWS V14.01,2013-08-14 10:00:00,
2013-08-14 06:30:00,63.5,55.8,29.68,West,270,3.0,9.0,76,0.01,,FEW047,0.01,VWS V14.01,2013-08-14 10:30:00,
2013-08-14 07:00:00,63.3,54.5,29.69,West,270,3.0,13.0,73,0.01,,FEW047,0.01,VWS V14.01,2013-08-14 11:00:00,
2013-08-14 07:30:00,63.5,53.2,29.69,West,270,5.0,15.0,69,0.00,,FEW050,0.01,VWS V14.01,2013-08-14 11:30:00,
2013-08-14 08:00:00,64.0,52.4,29.69,West,270,5.0,16.0,66,0.00,,FEW047,0.01,VWS V14.01,2013-08-14 12:00:00,
2013-08-14 08:30:00,65.0,52.1,29.69,West,270,5.0,19.0,63,0.00,,FEW047,0.01,VWS V14.01,2013-08-14 12:30:00,
2013-08-14 09:00:00,65.6,51.8,29.68,West,270,5.0,19.0,61,0.00,,FEW050,0.01,VWS V14.01,2013-08-14 13:00:00,
2013-08-14 09:30:00,67.2,52.4,29.68,West,270,6.0,21.0,59,0.00,,FEW050,0.01,VWS V14.01,2013-08-14 13:30:00,
2013-08-14 10:00:00,67.7,52.4,29.68,West,270,6.0,26.0,58,0.00,,FEW050,0.01,VWS V14.01,2013-08-14 14:00:00,
2013-08-14 10:30:00,68.4,52.6,29.68,West,270,6.0,20.0,57,0.00,,FEW047,0.01,VWS V14.01,2013-08-14 14:30:00,
2013-08-14 11:00:00,69.5,51.6,29.69,West,270,6.0,20.0,53,0.00,,FEW050,0.01,VWS V14.01,2013-08-14 15:00:00,
2013-08-14 11:30:00,69.9,52.0,29.69,West,270,7.0,23.0,53,0.00,,BKN036,0.01,VWS V14.01,2013-08-14 15:30:00,
2013-08-14 12:00:00,71.4,51.8,29.69,West,270,6.0,20.0,50,0.00,,BKN036,0.01,VWS V14.01,2013-08-14 16:00:00,
2013-08-14 12:50:00,71.4,51.8,29.69,West,270,6.0,20.0,50,0.00,,BKN036,0.01,VWS V14.01,2013-08-14 16:50:00,
2013-08-14 12:56:00,73.1,52.8,29.70,WNW,298,8.0,14.0,49,0.00,,FEW047,0.01,VWS V14.01,2013-08-14 16:56:00,
2013-08-14 13:00:00,73.1,53.4,29.70,WSW,248,2.0,19.0,50,0.00,,FEW050,0.01,VWS V14.01,2013-08-14 17:00:00,
2013-08-14 13:04:00,73.3,53.0,29.70,WSW,253,20.0,20.0,49,0.00,,FEW050,0.01,VWS V14.01,2013-08-14 17:04:00,
2013-08-14 13:09:00,73.1,52.3,29.70,NW,315,7.0,20.0,48,0.00,,FEW050,0.01,VWS V14.01,2013-08-14 17:09:00,
2013-08-14 13:15:00,73.1,51.7,29.70,WNW,286,2.0,23.0,47,0.00,,FEW050,0.01,VWS V14.01,2013-08-14 17:15:00,
2013-08-14 13:20:00,73.3,53.0,29.70,West,275,4.0,23.0,49,0.00,,FEW050,0.01,VWS V14.01,2013-08-14 17:20:00,
2013-08-14 13:25:00,73.5,52.6,29.69,WNW,302,5.0,23.0,48,0.00,,FEW050,0.01,VWS V14.01,2013-08-14 17:25:00,
2013-08-14 13:30:00,73.4,52.5,29.70,West,269,4.0,23.0,48,0.00,,FEW050,0.01,VWS V14.01,2013-08-14 17:30:00,
2013-08-14 13:35:00,73.2,52.9,29.69,WNW,301,2.0,13.0,49,0.00,,FEW050,0.01,VWS V14.01,2013-08-14 17:35:00,
2013-08-14 13:40:00,73.1,51.7,29.69,WNW,284,4.0,17.0,47,0.00,,FEW050,0.01,VWS V14.01,2013-08-14 17:40:00,
2013-08-14 13:45:00,73.3,53.0,29.69,WNW,285,11.0,17.0,49,0.00,,FEW050,0.01,VWS V14.01,2013-08-14 17:45:00,
2013-08-14 13:50:00,73.0,51.6,29.69,West,281,5.0,23.0,47,0.00,,FEW050,0.01,VWS V14.01,2013-08-14 17:50:00,
2013-08-14 13:55:00,72.5,50.6,29.70,WNW,284,18.0,23.0,46,0.00,,FEW050,0.01,VWS V14.01,2013-08-14 17:55:00,
2013-08-14 14:06:00,71.9,51.2,29.70,NW,313,5.0,5.0,48,0.00,,FEW050,0.01,VWS V14.01,2013-08-14 18:06:00,
2013-08-14 14:11:00,72.2,52.5,29.70,NNW,346,7.0,19.0,50,0.00,,FEW050,0.01,VWS V14.01,2013-08-14 18:11:00,
2013-08-14 14:16:00,72.5,51.2,29.70,West,272,8.0,19.0,47,0.00,,FEW050,0.01,VWS V14.01,2013-08-14 18:16:00,
2013-08-14 14:21:00,73.0,51.0,29.69,West,276,5.0,24.0,46,0.00,,FEW050,0.01,VWS V14.01,2013-08-14 18:21:00,
2013-08-14 14:26:00,73.6,51.0,29.69,WNW,294,4.0,24.0,45,0.00,,FEW050,0.01,VWS V14.01,2013-08-14 18:26:00,
2013-08-14 14:31:00,73.5,50.9,29.70,West,277,9.0,15.0,45,0.00,,FEW050,0.01,VWS V14.01,2013-08-14 18:31:00,
2013-08-14 14:36:00,73.5,50.9,29.70,NW,313,4.0,20.0,45,0.00,,FEW050,0.01,VWS V14.01,2013-08-14 18:36:00,
2013-08-14 14:41:00,73.9,51.2,29.70,West,265,11.0,20.0,45,0.00,,FEW050,0.01,VWS V14.01,2013-08-14 18:41:00,
2013-08-14 14:46:00,73.6,51.6,29.70,West,263,7.0,24.0,46,0.00,,FEW050,0.01,VWS V14.01,2013-08-14 18:46:00,
2013-08-14 14:51:00,74.1,52.6,29.70,WNW,293,2.0,24.0,47,0.00,,FEW050,0.01,VWS V14.01,2013-08-14 18:51:00,
2013-08-14 14:56:00,75.0,52.2,29.69,North,5,8.0,24.0,45,0.00,,FEW050,0.01,VWS V14.01,2013-08-14 18:56:00,
2013-08-14 15:01:00,75.2,51.8,29.69,WNW,294,7.0,12.0,44,0.00,,SCT140,0.01,VWS V14.01,2013-08-14 19:01:00,
2013-08-14 15:06:00,74.9,52.8,29.69,West,271,12.0,22.0,46,0.00,,SCT140,0.01,VWS V14.01,2013-08-14 19:06:00,
2013-08-14 15:12:00,75.0,52.2,29.69,NW,308,5.0,23.0,45,0.00,,SCT140,0.01,VWS V14.01,2013-08-14 19:12:00,
2013-08-14 15:17:00,75.5,52.1,29.69,NW,317,8.0,23.0,44,0.00,,SCT140,0.01,VWS V14.01,2013-08-14 19:17:00,
2013-08-14 15:22:00,75.9,51.8,29.69,NNW,330,4.0,23.0,43,0.00,,SCT140,0.01,VWS V14.01,2013-08-14 19:22:00,
2013-08-14 15:27:00,76.2,51.5,29.70,NW,320,5.0,23.0,42,0.00,,SCT140,0.01,VWS V14.01,2013-08-14 19:27:00,
2013-08-14 15:32:00,76.1,52.6,29.70,NW,314,8.0,9.0,44,0.00,,SCT140,0.01,VWS V14.01,2013-08-14 19:32:00,
2013-08-14 15:37:00,76.0,52.5,29.70,WNW,283,5.0,15.0,44,0.00,,SCT140,0.01,VWS V14.01,2013-08-14 19:37:00,
2013-08-14 15:42:00,76.1,51.4,29.70,WNW,302,11.0,18.0,42,0.00,,SCT140,0.01,VWS V14.01,2013-08-14 19:42:00,
2013-08-14 15:47:00,76.2,52.1,29.71,NW,304,9.0,18.0,43,0.00,,SCT140,0.01,VWS V14.01,2013-08-14 19:47:00,
2013-08-14 15:52:00,76.2,52.1,29.71,NW,304,5.0,18.0,43,0.00,,SCT140,0.01,VWS V14.01,2013-08-14 19:52:00,
2013-08-14 15:58:00,76.2,52.7,29.71,WNW,286,8.0,18.0,44,0.00,,SCT140,0.01,VWS V14.01,2013-08-14 19:58:00,
2013-08-14 16:03:00,76.3,52.2,29.71,West,267,19.0,19.0,43,0.00,,SCT140,0.01,VWS V14.01,2013-08-14 20:03:00,
2013-08-14 16:08:00,76.0,51.9,29.72,West,280,6.0,22.0,43,0.00,,SCT140,0.01,VWS V14.01,2013-08-14 20:08:00,
2013-08-14 16:13:00,75.9,51.2,29.72,West,273,7.0,22.0,42,0.00,,SCT140,0.01,VWS V14.01,2013-08-14 20:13:00,
2013-08-14 16:18:00,75.5,51.5,29.71,NW,309,6.0,22.0,43,0.00,,SCT140,0.01,VWS V14.01,2013-08-14 20:18:00,
2013-08-14 16:23:00,75.5,52.1,29.71,West,275,8.0,22.0,44,0.00,,SCT140,0.01,VWS V14.01,2013-08-14 20:23:00,
2013-08-14 16:28:00,75.5,52.7,29.71,SW,232,5.0,22.0,45,0.00,,SCT140,0.01,VWS V14.01,2013-08-14 20:28:00,
2013-08-14 16:33:00,75.7,52.9,29.71,NNW,333,8.0,12.0,45,0.00,,SCT140,0.01,VWS V14.01,2013-08-14 20:33:00,
2013-08-14 16:38:00,75.8,53.0,29.71,NW,304,4.0,15.0,45,0.00,,SCT140,0.01,VWS V14.01,2013-08-14 20:38:00,
2013-08-14 16:43:00,75.6,53.4,29.71,NNW,335,2.0,19.0,46,0.00,,SCT140,0.01,VWS V14.01,2013-08-14 20:43:00,
2013-08-14 16:48:00,75.8,53.0,29.71,West,259,5.0,23.0,45,0.00,,SCT140,0.01,VWS V14.01,2013-08-14 20:48:00,
2013-08-14 16:53:00,76.1,51.4,29.71,NW,305,17.0,24.0,42,0.00,,SCT140,0.01,VWS V14.01,2013-08-14 20:53:00,
2013-08-14 16:58:00,75.8,51.1,29.72,NW,305,6.0,25.0,42,0.00,,SCT140,0.01,VWS V14.01,2013-08-14 20:58:00,
2013-08-14 17:03:00,75.8,51.1,29.72,NW,309,5.0,20.0,42,0.00,,SCT140,0.01,VWS V14.01,2013-08-14 21:03:00,
2013-08-14 17:08:00,75.8,51.1,29.72,WNW,283,7.0,20.0,42,0.00,,SCT140,0.01,VWS V14.01,2013-08-14 21:08:00,
2013-08-14 17:13:00,75.8,51.1,29.72,NW,312,6.0,20.0,42,0.00,,SCT140,0.01,VWS V14.01,2013-08-14 21:13:00,
2013-08-14 17:18:00,75.8,51.7,29.73,WSW,250,3.0,20.0,43,0.00,,SCT140,0.01,VWS V14.01,2013-08-14 21:18:00,
2013-08-14 17:23:00,75.7,52.3,29.73,NW,312,5.0,20.0,44,0.00,,SCT140,0.01,VWS V14.01,2013-08-14 21:23:00,
2013-08-14 17:28:00,75.9,52.5,29.73,West,281,2.0,20.0,44,0.00,,SCT140,0.01,VWS V14.01,2013-08-14 21:28:00,
2013-08-14 17:33:00,75.9,52.5,29.73,WNW,301,5.0,11.0,44,0.00,,SCT140,0.01,VWS V14.01,2013-08-14 21:33:00,
2013-08-14 17:38:00,76.0,52.5,29.73,West,274,6.0,11.0,44,0.00,,SCT140,0.01,VWS V14.01,2013-08-14 21:38:00,
2013-08-14 17:43:00,76.0,51.9,29.73,NNW,339,2.0,11.0,43,0.00,,SCT140,0.01,VWS V14.01,2013-08-14 21:43:00,
2013-08-14 17:49:00,76.1,52.6,29.73,SSW,208,5.0,11.0,44,0.00,,SCT140,0.01,VWS V14.01,2013-08-14 21:49:00,
2013-08-14 17:54:00,75.9,52.5,29.74,WNW,302,4.0,15.0,44,0.00,,SCT140,0.01,VWS V14.01,2013-08-14 21:54:00,
2013-08-14 17:59:00,75.7,52.9,29.74,West,279,13.0,16.0,45,0.00,,SCT140,0.01,VWS V14.01,2013-08-14 21:59:00,
2013-08-14 18:04:00,75.0,51.6,29.74,WSW,246,18.0,20.0,44,0.00,,SCT055,0.01,VWS V14.01,2013-08-14 22:04:00,
2013-08-14 18:08:00,74.5,51.8,29.74,North,355,2.0,20.0,45,0.00,,SCT055,0.01,VWS V14.01,2013-08-14 22:08:00,
2013-08-14 18:13:00,74.4,52.3,29.74,WNW,289,4.0,20.0,46,0.00,,SCT055,0.01,VWS V14.01,2013-08-14 22:13:00,
2013-08-14 18:19:00,74.4,52.3,29.74,WNW,301,4.0,20.0,46,0.00,,SCT055,0.01,VWS V14.01,2013-08-14 22:19:00,
2013-08-14 18:23:00,74.3,52.2,29.74,NW,321,7.0,20.0,46,0.00,,SCT055,0.01,VWS V14.01,2013-08-14 22:23:00,
2013-08-14 18:29:00,74.2,52.7,29.75,WNW,301,1.0,20.0,47,0.00,,SCT055,0.01,VWS V14.01,2013-08-14 22:29:00,
2013-08-14 18:34:00,74.2,52.7,29.76,West,278,5.0,13.0,47,0.00,,SCT055,0.01,VWS V14.01,2013-08-14 22:34:00,
2013-08-14 18:39:00,73.7,52.2,29.76,West,274,6.0,18.0,47,0.00,,SCT055,0.01,VWS V14.01,2013-08-14 22:39:00,
2013-08-14 18:44:00,73.2,52.4,29.76,WNW,286,0.0,18.0,48,0.00,,SCT055,0.01,VWS V14.01,2013-08-14 22:44:00,
2013-08-14 18:49:00,72.9,52.6,29.77,West,267,4.0,18.0,49,0.00,,SCT055,0.01,VWS V14.01,2013-08-14 22:49:00,
2013-08-14 18:54:00,72.6,52.4,29.77,NW,311,2.0,19.0,49,0.00,,SCT055,0.01,VWS V14.01,2013-08-14 22:54:00,
2013-08-14 18:59:00,72.3,52.6,29.78,West,273,0.0,19.0,50,0.00,,SCT055,0.01,VWS V14.01,2013-08-14 22:59:00,
2013-08-14 19:04:00,72.2,53.1,29.78,West,271,14.0,14.0,51,0.00,,FEW055,0.01,VWS V14.01,2013-08-14 23:04:00,
2013-08-14 19:09:00,72.0,53.4,29.79,NW,316,4.0,14.0,52,0.00,,FEW055,0.01,VWS V14.01,2013-08-14 23:09:00,
2013-08-14 19:14:00,71.6,53.1,29.79,West,276,6.0,14.0,52,0.00,,FEW055,0.01,VWS V14.01,2013-08-14 23:14:00,
2013-08-14 19:19:00,71.4,53.4,29.79,West,273,0.0,14.0,53,0.00,,FEW055,0.01,VWS V14.01,2013-08-14 23:19:00,
2013-08-14 19:24:00,71.1,53.6,29.79,NW,309,4.0,14.0,54,0.00,,FEW055,0.01,VWS V14.01,2013-08-14 23:24:00,
2013-08-14 19:29:00,70.8,53.3,29.79,NW,305,1.0,14.0,54,0.00,,FEW055,0.01,VWS V14.01,2013-08-14 23:29:00,
2013-08-14 19:34:00,70.4,53.5,29.80,NW,305,0.0,4.0,55,0.00,,FEW055,0.01,VWS V14.01,2013-08-14 23:34:00,
2013-08-14 19:39:00,70.1,53.7,29.80,WNW,284,6.0,6.0,56,0.00,,FEW055,0.01,VWS V14.01,2013-08-14 23:39:00,
2013-08-14 19:44:00,69.8,53.9,29.80,West,277,1.0,6.0,57,0.00,,FEW055,0.01,VWS V14.01,2013-08-14 23:44:00,
2013-08-14 19:49:00,69.5,54.1,29.81,West,265,0.0,8.0,58,0.00,,FEW055,0.01,VWS V14.01,2013-08-14 23:49:00,
2013-08-14 19:54:00,69.2,53.8,29.81,WNW,294,4.0,8.0,58,0.00,,FEW055,0.01,VWS V14.01,2013-08-14 23:54:00,
2013-08-14 19:59:00,69.0,53.6,29.81,West,278,0.0,8.0,58,0.00,,FEW055,0.01,VWS V14.01,2013-08-14 23:59:00,
2013-08-14 20:04:00,68.7,53.8,29.81,West,275,1.0,6.0,59,0.00,,FEW055,0.01,VWS V14.01,2013-08-15 00:04:00,
2013-08-14 20:09:00,68.6,53.7,29.82,WNW,288,2.0,6.0,59,0.00,,FEW055,0.01,VWS V14.01,2013-08-15 00:09:00,
2013-08-14 20:14:00,68.4,53.5,29.82,NW,326,4.0,6.0,59,0.00,,FEW055,0.01,VWS V14.01,2013-08-15 00:14:00,
2013-08-14 20:19:00,68.2,52.9,29.82,West,277,2.0,8.0,58,0.00,,FEW055,0.01,VWS V14.01,2013-08-15 00:19:00,
2013-08-14 20:24:00,68.1,52.8,29.83,SW,231,4.0,16.0,58,0.00,,FEW055,0.01,VWS V14.01,2013-08-15 00:24:00,
2013-08-14 20:29:00,68.0,52.7,29.83,West,262,1.0,16.0,58,0.00,,FEW055,0.01,VWS V14.01,2013-08-15 00:29:00,
2013-08-14 20:34:00,67.9,52.1,29.84,WNW,284,0.0,6.0,57,0.00,,FEW055,0.01,VWS V14.01,2013-08-15 00:34:00,
2013-08-14 20:39:00,67.9,52.1,29.84,West,273,0.0,8.0,57,0.00,,FEW055,0.01,VWS V14.01,2013-08-15 00:39:00,
2013-08-14 20:44:00,67.7,51.9,29.84,West,276,9.0,11.0,57,0.00,,FEW055,0.01,VWS V14.01,2013-08-15 00:44:00,
2013-08-14 20:49:00,67.6,52.3,29.84,West,273,2.0,11.0,58,0.00,,FEW055,0.01,VWS V14.01,2013-08-15 00:49:00,
2013-08-14 20:54:00,67.4,52.6,29.85,West,274,0.0,11.0,59,0.00,,FEW055,0.01,VWS V14.01,2013-08-15 00:54:00,
2013-08-14 20:59:00,67.2,52.4,29.85,WNW,284,0.0,11.0,59,0.00,,FEW055,0.01,VWS V14.01,2013-08-15 00:59:00,
2013-08-14 21:04:00,67.0,52.7,29.86,West,279,1.0,7.0,60,0.00,,FEW055,0.01,VWS V14.01,2013-08-15 01:04:00,
2013-08-14 21:09:00,66.8,52.5,29.86,West,279,0.0,7.0,60,0.00,,FEW055,0.01,VWS V14.01,2013-08-15 01:09:00,
2013-08-14 21:14:00,66.6,52.3,29.86,West,279,0.0,7.0,60,0.00,,FEW055,0.01,VWS V14.01,2013-08-15 01:14:00,
2013-08-14 21:19:00,66.4,52.1,29.87,West,279,0.0,7.0,60,0.00,,FEW055,0.01,VWS V14.01,2013-08-15 01:19:00,
2013-08-14 21:24:00,66.2,51.9,29.87,West,279,0.0,7.0,60,0.00,,FEW055,0.01,VWS V14.01,2013-08-15 01:24:00,
2013-08-14 21:29:00,66.0,51.7,29.87,West,280,1.0,7.0,60,0.00,,FEW055,0.01,VWS V14.01,2013-08-15 01:29:00,
2013-08-14 21:34:00,65.8,52.0,29.87,West,280,4.0,4.0,61,0.00,,FEW055,0.01,VWS V14.01,2013-08-15 01:34:00,
2013-08-14 21:39:00,65.6,51.8,29.88,West,280,5.0,6.0,61,0.00,,FEW055,0.01,VWS V14.01,2013-08-15 01:39:00,
2013-08-14 21:44:00,65.5,52.2,29.88,West,279,2.0,7.0,62,0.00,,FEW055,0.01,VWS V14.01,2013-08-15 01:44:00,
2013-08-14 21:49:00,65.3,52.0,29.88,West,279,0.0,7.0,62,0.00,,FEW055,0.01,VWS V14.01,2013-08-15 01:49:00,
2013-08-14 21:54:00,65.2,51.9,29.88,West,280,0.0,7.0,62,0.00,,FEW055,0.01,VWS V14.01,2013-08-15 01:54:00,
2013-08-14 21:59:00,65.0,51.7,29.89,West,280,0.0,7.0,62,0.00,,FEW055,0.01,VWS V14.01,2013-08-15 01:59:00,
2013-08-14 22:04:00,64.8,51.9,29.88,West,277,2.0,7.0,63,0.00,,CLR,0.01,VWS V14.01,2013-08-15 02:04:00,
2013-08-14 22:09:00,64.7,51.8,29.88,WNW,291,0.0,8.0,63,0.00,,CLR,0.01,VWS V14.01,2013-08-15 02:09:00,
2013-08-14 22:14:00,64.6,51.3,29.89,WNW,296,2.0,8.0,62,0.00,,CLR,0.01,VWS V14.01,2013-08-15 02:14:00,
2013-08-14 22:19:00,64.5,51.2,29.89,WNW,297,0.0,8.0,62,0.00,,CLR,0.01,VWS V14.01,2013-08-15 02:19:00,
2013-08-14 22:24:00,64.5,51.2,29.89,West,275,5.0,10.0,62,0.00,,CLR,0.01,VWS V14.01,2013-08-15 02:24:00,
2013-08-14 22:29:00,64.5,51.2,29.89,West,262,2.0,10.0,62,0.00,,CLR,0.01,VWS V14.01,2013-08-15 02:29:00,
2013-08-14 22:34:00,64.4,51.1,29.89,WNW,303,1.0,5.0,62,0.00,,CLR,0.01,VWS V14.01,2013-08-15 02:34:00,
2013-08-14 22:39:00,64.3,51.0,29.90,WNW,303,0.0,5.0,62,0.00,,CLR,0.01,VWS V14.01,2013-08-15 02:39:00,
2013-08-14 22:44:00,64.1,51.3,29.90,WNW,303,1.0,5.0,63,0.00,,CLR,0.01,VWS V14.01,2013-08-15 02:44:00,
2013-08-14 22:49:00,63.9,51.5,29.90,WNW,290,5.0,6.0,64,0.00,,CLR,0.01,VWS V14.01,2013-08-15 02:49:00,
2013-08-14 22:54:00,63.7,51.7,29.90,WNW,289,0.0,7.0,65,0.00,,CLR,0.01,VWS V14.01,2013-08-15 02:54:00,
2013-08-14 22:59:00,63.5,51.5,29.91,WNW,289,2.0,7.0,65,0.00,,CLR,0.01,VWS V14.01,2013-08-15 02:59:00,
2013-08-14 23:04:00,63.3,51.8,29.91,WNW,289,0.0,4.0,66,0.00,,CLR,0.01,VWS V14.01,2013-08-15 03:04:00,
2013-08-14 23:09:00,63.1,51.6,29.91,WNW,289,2.0,4.0,66,0.00,,CLR,0.01,VWS V14.01,2013-08-15 03:09:00,
2013-08-14 23:14:00,62.8,51.7,29.91,WNW,289,0.0,6.0,67,0.00,,CLR,0.01,VWS V14.01,2013-08-15 03:14:00,
2013-08-14 23:19:00,62.7,51.6,29.92,WNW,288,0.0,9.0,67,0.00,,CLR,0.01,VWS V14.01,2013-08-15 03:19:00,
2013-08-14 23:24:00,62.6,51.5,29.92,WNW,288,0.0,9.0,67,0.00,,CLR,0.01,VWS V14.01,2013-08-15 03:24:00,
2013-08-14 23:29:00,62.4,51.3,29.92,WNW,288,2.0,9.0,67,0.00,,CLR,0.01,VWS V14.01,2013-08-15 03:29:00,
2013-08-14 23:34:00,62.3,51.2,29.92,WNW,285,0.0,5.0,67,0.00,,CLR,0.01,VWS V14.01,2013-08-15 03:34:00,
2013-08-14 23:39:00,62.1,51.4,29.92,WNW,285,0.0,5.0,68,0.00,,CLR,0.01,VWS V14.01,2013-08-15 03:39:00,
2013-08-14 23:44:00,61.9,51.6,29.92,WNW,285,0.0,5.0,69,0.00,,CLR,0.01,VWS V14.01,2013-08-15 03:44:00,
2013-08-14 23:49:00,61.7,51.4,29.93,WNW,285,2.0,5.0,69,0.00,,CLR,0.01,VWS V14.01,2013-08-15 03:49:00,
2013-08-14 23:54:00,61.5,51.2,29.93,WNW,285,0.0,5.0,69,0.00,,CLR,0.01,VWS V14.01,2013-08-15 03:54:00,
2013-08-14 23:59:00,61.3,51.5,29.93,WNW,285,0.0,5.0,70,0.00,,CLR,0.01,VWS V14.01,2013-08-15 03:59:00,